Home > Weather > Minas > Past weeks

Flag for Uruguay Past Weather in Minas, Uruguay — Yesterday and Last 2 Weeks

Now
57 °F

Fog.


Feels Like: 55 °F
Forecast: 53 / 61 °F
Wind: 9 mph from South

Location: Capitan Corbeta

Current Time: May 28, 2016 at 10:58:20 AM

Latest Report: May 28, 2016 at 10:00 AM


Visibility: N/A

Pressure: 30.42 "Hg

Humidity: 88%

Dew Point: 54 °F

Location of MinasLocation

Past Weather in Minas — Graph

°F

Minas Temperature Yesterday

Maximum temperature yesterday: 61 °F (at 1:00 PM)
Minimum temperature yesterday: 55 °F (at 12:00 AM)
Average temperature yesterday: 57 °F

High & Low Weather Summary for the Past Weeks

 TemperatureHumidityPressure
High64 °F (May 14, 1:00 PM)100% (May 24, 2:00 AM)30.42 "Hg (May 24, 2:00 AM)
Low41 °F (May 14, 1:00 AM)52% (May 24, 3:00 PM)29.74 "Hg (May 15, 2:00 PM)
Average53 °F82%30.18 "Hg
* Reported May 13 9:00 AM — May 28 9:00 AM, Minas, Weather by CustomWeather, © 2016

Note: Actual official high and low records may vary slightly from our data, if they occured in-between our weather recording intervals... More about our weather records

Advertising

Minas Weather History for the Previous 24 Hours

Scroll right to see more
 ConditionsComfort  
Time TempWeatherWind HumidityBarometerVisibility
9:00 AM
Sat, May 28
57 °FOvercast.8 mph88%30.39 "HgN/A
8:00 AM57 °FLight rain. Mostly cloudy.12 mph88%30.39 "HgN/A
7:00 AM55 °FLight rain. Overcast.7 mph88%30.39 "HgN/A
6:00 AM57 °FRain. Overcast.7 mph88%30.36 "HgN/A
5:00 AM57 °FDrizzle. Overcast.9 mph82%30.36 "Hg6 mi
4:00 AM55 °FPassing clouds.14 mph77%30.36 "HgN/A
3:00 AM55 °FPassing clouds.13 mph77%30.36 "HgN/A
2:00 AM55 °FPassing clouds.15 mph77%30.36 "HgN/A
1:00 AM55 °FPassing clouds.13 mph77%30.36 "HgN/A
12:00 AM55 °FPassing clouds.13 mph77%30.36 "HgN/A
11:00 PM
Fri, May 27
55 °FClear.15 mph77%30.36 "Hg10 mi
10:00 PM55 °FClear.15 mph77%30.36 "Hg10 mi
9:00 PM55 °FClear.12 mph77%30.36 "Hg10 mi
8:00 PM55 °FClear.12 mph77%30.36 "Hg10 mi
7:00 PM55 °FClear.12 mph77%30.36 "Hg10 mi
6:00 PM55 °FClear.10 mph77%30.33 "Hg10 mi
5:00 PM57 °FClear.10 mph72%30.33 "Hg10 mi
4:00 PM59 °FSunny.13 mph68%30.33 "Hg10 mi
3:00 PM61 °FPartly sunny.12 mph72%30.33 "HgN/A
2:00 PM61 °FPassing clouds.13 mph68%30.33 "HgN/A
1:00 PM61 °FPartly sunny.10 mph72%30.33 "HgN/A
12:00 PM59 °FPartly sunny.15 mph77%30.33 "HgN/A
11:00 AM59 °FBroken clouds.17 mph82%30.33 "HgN/A
10:00 AM57 °FBroken clouds.15 mph82%30.33 "HgN/A
Weather by CustomWeather, © 2016

See weather overviewHow to use our weather pages